GW0720 Weather Reports


Display with metric or nautical units.
time (UTC)temp
F
wind
direction
speed
MPH
gust
MPH
rain 1hr
in
rain 24hr
in
rain mn
in
humidity
%
barometer
mb
20260904074607 77 0 0.0 0.0 0.00 0.00 0.00 88 1014.8
20260904073104 78 0 0.0 0.0 0.00 0.00 0.00 87 1014.8
20260904071559 78 0 0.0 0.0 0.00 0.00 0.00 85 1014.6
20260904070100 79 0 0.0 0.0 0.00 0.00 0.00 85 1014.9
20260904064604 80 0 0.0 2.0 0.00 0.00 0.00 84 1015.0
20260904063052 81 63 0.0 2.0 0.00 0.00 0.00 84 1014.6
20260904061600 82 0 0.0 2.0 0.00 0.00 0.00 82 1015.4
20260904060120 81 105 2.0 8.0 0.00 0.00 0.00 82 1015.6
20260904054603 81 0 0.0 1.0 0.00 0.00 0.00 83 1014.9
20260904053148 80 15 0.0 3.0 0.00 0.00 0.00 84 1014.7
20260904051614 79 336 0.0 3.0 0.00 0.00 0.00 89 1014.9
20260904050108 78 0 0.0 0.0 0.00 0.00 0.00 92 1015.2
20260904044603 78 0 0.0 0.0 0.00 0.00 0.00 93 1015.2
20260904043055 78 0 0.0 0.0 0.00 0.00 0.00 93 1015.3
20260904041605 78 0 0.0 0.0 0.00 0.00 0.00 93 1015.4
20260904034559 78 0 0.0 0.0 0.00 0.00 0.00 93 1015.5
20260904033106 79 0 0.0 1.0 0.00 0.00 0.00 93 1015.9
20260904031556 79 0 0.0 0.0 0.00 0.00 0.00 93 1015.8
20260904030100 79 0 0.0 0.0 0.00 0.00 0.00 93 1015.8
20260904024622 79 0 0.0 0.0 0.00 0.00 0.00 93 1015.8
20260904023106 79 0 0.0 0.0 0.00 0.00 0.00 92 1015.9
20260904021559 79 0 0.0 0.0 0.00 0.00 0.00 91 1015.5
20260904010106 80 0 0.0 0.0 0.00 0.00 0.00 89 1016.3
20260904004554 81 0 0.0 0.0 0.00 0.00 0.00 88 1016.3
20260904003059 81 0 0.0 0.0 0.00 0.00 0.00 87 1016.3
20260904001606 82 0 0.0 0.0 0.00 0.00 0.00 86 1016.0
20260904000115 82 0 0.0 0.0 0.00 0.00 0.00 85 1015.7
20260903234554 83 0 0.0 0.0 0.00 0.00 0.00 84 1015.5
20260903233121 84 0 0.0 0.0 0.00 0.00 0.00 84 1015.3
20260903231558 85 0 0.0 0.0 0.00 0.00 0.00 82 1015.4
20260903230113 86 0 0.0 0.0 0.00 0.00 0.00 82 1015.3
20260903224626 86 0 0.0 0.0 0.00 0.00 0.00 81 1015.4
20260903223133 87 0 0.0 0.0 0.00 0.00 0.00 79 1015.3
20260903221603 88 0 0.0 0.0 0.00 0.00 0.00 79 1015.5
20260903220105 89 0 0.0 0.0 0.00 0.00 0.00 76 1015.6
20260903214604 90 0 0.0 0.0 0.00 0.00 0.00 71 1015.6
20260903213109 91 0 0.0 1.0 0.00 0.00 0.00 69 1015.5
20260903211556 92 0 0.0 1.0 0.00 0.00 0.00 65 1015.5
20260903210114 93 0 0.0 2.0 0.00 0.00 0.00 68 1015.7
20260903204600 93 0 0.0 4.0 0.00 0.00 0.00 64 1015.8
20260903203101 93 0 0.0 4.0 0.00 0.00 0.00 64 1015.8
20260903201602 93 89 0.0 2.0 0.00 0.00 0.00 65 1016.1
20260903200101 94 0 0.0 2.0 0.00 0.00 0.00 64 1016.3
20260903194606 94 0 0.0 1.0 0.00 0.00 0.00 64 1016.4
20260903193100 94 0 0.0 1.0 0.00 0.00 0.00 61 1016.5
20260903191601 94 0 0.0 2.0 0.00 0.00 0.00 65 1016.7
20260903190107 95 313 0.0 3.0 0.00 0.00 0.00 60 1016.8
20260903184600 95 61 0.0 3.0 0.00 0.00 0.00 63 1017.1
20260903183109 95 0 0.0 3.0 0.00 0.00 0.00 64 1017.4
20260903181559 94 0 0.0 2.0 0.00 0.00 0.00 63 1017.5
20260903174558 95 0 1.0 4.0 0.00 0.00 0.00 63 1018.0
20260903173102 94 0 0.0 2.0 0.00 0.00 0.00 65 1018.1
20260903171748 93 98 0.0 4.0 0.00 0.00 0.00 67 1018.1
20260903171647 93 98 0.0 4.0 0.00 0.00 0.00 67 1018.1
20260903170106 92 27 0.0 6.0 0.00 0.00 0.00 72 1018.3
20260903164834 91 0 0.0 4.0 0.00 0.00 0.00 71 1018.4
20260903163218 91 0 0.0 3.0 0.00 0.00 0.00 72 1018.4
20260903163059 91 0 0.0 3.0 0.00 0.00 0.00 72 1018.4
20260903162044 90 0 0.0 3.0 0.00 0.00 0.00 70 1018.5
20260903161601 90 0 0.0 3.0 0.00 0.00 0.00 70 1018.5
20260903154600 91 0 0.0 3.0 0.00 0.00 0.00 67 1018.5
20260903153341 91 269 0.0 3.0 0.00 0.00 0.00 69 1018.7
20260903153249 91 269 0.0 3.0 0.00 0.00 0.00 69 1018.7
20260903151558 90 0 0.0 6.0 0.00 0.00 0.00 72 1018.8
20260903150105 89 0 1.0 3.0 0.00 0.00 0.00 75 1018.7
20260903144559 88 0 0.0 5.0 0.00 0.00 0.00 72 1018.5
20260903143105 87 0 0.0 4.0 0.00 0.00 0.00 74 1018.1
20260903141607 86 0 0.0 1.0 0.00 0.00 0.00 76 1018.0
20260903140111 83 0 0.0 2.0 0.00 0.00 0.00 82 1017.8
20260903134602 81 0 1.0 3.0 0.00 0.00 0.00 83 1018.0
20260903133103 79 0 0.0 1.0 0.00 0.00 0.00 89 1017.9
20260903131633 77 0 0.0 3.0 0.00 0.00 0.00 93 1018.0
20260903130115 76 0 0.0 1.0 0.00 0.00 0.00 96 1018.3
20260903124604 76 0 0.0 0.0 0.00 0.00 0.00 97 1018.5
20260903123104 76 0 0.0 1.0 0.00 0.00 0.00 97 1018.5
20260903121623 76 0 0.0 0.0 0.00 0.00 0.00 97 1018.5
20260903110138 73 0 0.0 0.0 0.00 0.00 0.00 96 1017.7
20260903103101 74 0 0.0 0.0 0.00 0.00 0.00 96 1017.6
20260903101559 74 0 0.0 0.0 0.00 0.00 0.00 96 1017.5
20260903100104 74 0 0.0 0.0 0.00 0.00 0.00 96 1017.4
20260903094610 74 0 0.0 0.0 0.00 0.00 0.00 96 1017.6
20260903093107 74 0 0.0 0.0 0.00 0.00 0.00 96 1017.5
20260903091606 74 0 0.0 0.0 0.00 0.00 0.00 96 1017.4
20260903084604 74 0 0.0 0.0 0.00 0.00 0.00 96 1017.2
20260903083058 74 0 0.0 0.0 0.00 0.00 0.00 96 1017.1
20260903081557 74 0 0.0 0.0 0.00 0.00 0.00 95 1017.2
20260903080055 74 0 0.0 0.0 0.00 0.00 0.00 95 1017.4